Location: Düngen
(52.0952°N, 10.0219°E)
Time: 19:20:35
(UTC+00:00)

Cosmos 2297 Rocket - Pass Details

Date: 11 March 2026
Orbit: 840 x 841 km, 71.0° (Epoch: 20 April)

Event Time Altitude Azimuth Distance (km) Brightness Sun altitude
Rises 20:00:15 0° 330° (NNW) 3,408 6.3 -25.0°
Reaches altitude 10° 20:02:59 10° 340° (NNW) 2,470 5.2 -25.3°
Maximum altitude 20:08:02 32° 43° (NE) 1,410 3.2 -26.0°
Enters shadow 20:08:05 32° 44° (NE) 1,410 3.2 -26.0°
